TimeEDT,TemperatureF,Dew PointF,Humidity,Sea Level PressureIn,VisibilityMPH,Wind Direction,Wind SpeedMPH,Gust SpeedMPH,PrecipitationIn,Events,Conditions,WindDirDegrees,DateUTC
12:54 AM,62.1,57.9,86,30.08,10.0,North,8.1,-,0.00,Rain,Light Rain,360,2013-07-26 04:54:00
1:09 AM,62.6,57.2,82,30.07,10.0,North,6.9,-,0.00,,Overcast,360,2013-07-26 05:09:00
1:54 AM,62.1,57.9,86,30.06,10.0,North,5.8,-,0.00,Rain,Light Rain,360,2013-07-26 05:54:00
2:54 AM,62.1,57.9,86,30.06,10.0,North,4.6,-,0.02,Rain,Light Rain,10,2013-07-26 06:54:00
3:54 AM,62.1,59.0,90,30.04,10.0,North,4.6,-,0.00,Rain,Light Rain,360,2013-07-26 07:54:00
4:16 AM,62.6,59.0,88,30.04,10.0,North,5.8,-,0.01,Rain,Light Rain,10,2013-07-26 08:16:00
4:54 AM,63.0,59.0,87,30.03,10.0,North,10.4,-,0.02,Rain,Light Rain,360,2013-07-26 08:54:00
5:24 AM,62.6,59.0,88,30.03,10.0,North,6.9,-,0.01,Rain,Light Rain,360,2013-07-26 09:24:00
5:54 AM,63.0,59.0,87,30.02,10.0,North,6.9,-,0.01,Rain,Light Rain,360,2013-07-26 09:54:00
6:54 AM,63.0,59.0,87,30.02,10.0,North,8.1,-,0.01,Rain,Light Rain,10,2013-07-26 10:54:00
7:11 AM,62.6,59.0,88,30.02,10.0,North,8.1,-,0.01,Rain,Light Rain,360,2013-07-26 11:11:00
7:54 AM,63.0,60.1,90,30.03,10.0,North,8.1,-,0.01,Rain,Light Rain,10,2013-07-26 11:54:00
8:54 AM,64.0,60.1,87,30.01,10.0,North,9.2,18.4,0.02,Rain,Light Rain,360,2013-07-26 12:54:00
9:37 AM,64.4,60.8,88,30.01,10.0,North,9.2,19.6,0.00,Rain,Light Rain,360,2013-07-26 13:37:00
9:54 AM,64.0,60.1,87,30.00,10.0,North,10.4,-,0.00,Rain,Light Rain,350,2013-07-26 13:54:00
10:54 AM,66.0,61.0,84,29.99,10.0,North,12.7,23.0,0.00,,Overcast,360,2013-07-26 14:54:00
11:54 AM,66.9,61.0,81,29.98,10.0,North,9.2,-,N/A,,Overcast,350,2013-07-26 15:54:00
12:33 PM,68.0,62.6,83,29.98,10.0,NNW,6.9,-,N/A,,Overcast,340,2013-07-26 16:33:00
12:54 PM,69.1,62.1,78,29.97,10.0,NNW,5.8,-,N/A,,Overcast,340,2013-07-26 16:54:00
1:25 PM,71.6,62.6,73,29.96,10.0,NNW,11.5,17.3,N/A,,Overcast,340,2013-07-26 17:25:00
1:35 PM,71.6,62.6,73,29.96,10.0,NNW,6.9,16.1,N/A,,Overcast,330,2013-07-26 17:35:00
1:54 PM,71.1,62.1,73,29.96,10.0,NNW,10.4,-,N/A,,Overcast,340,2013-07-26 17:54:00
2:54 PM,72.0,62.1,71,29.96,10.0,WNW,9.2,17.3,N/A,,Overcast,300,2013-07-26 18:54:00
3:26 PM,69.8,62.6,78,29.96,10.0,WNW,8.1,-,0.00,Rain,Light Rain,300,2013-07-26 19:26:00
3:54 PM,71.1,63.0,75,29.96,10.0,NW,8.1,-,0.00,,Overcast,310,2013-07-26 19:54:00
4:54 PM,70.0,63.0,78,29.96,10.0,WNW,10.4,-,0.00,,Overcast,290,2013-07-26 20:54:00
5:54 PM,71.1,63.0,75,29.96,10.0,WNW,4.6,-,N/A,,Overcast,290,2013-07-26 21:54:00
6:54 PM,70.0,64.9,84,29.97,5.0,Calm,Calm,-,0.04,Rain,Light Rain,0,2013-07-26 22:54:00
7:54 PM,69.1,66.0,90,29.98,4.0,Calm,Calm,-,0.06,Rain,Rain,0,2013-07-26 23:54:00
8:54 PM,69.1,64.9,87,29.98,10.0,WSW,4.6,-,0.04,,Mostly Cloudy,240,2013-07-27 00:54:00
9:54 PM,68.0,64.0,87,30.00,10.0,SSW,3.5,-,N/A,,Clear,200,2013-07-27 01:54:00
10:54 PM,68.0,62.1,81,30.00,10.0,WSW,6.9,-,N/A,,Clear,250,2013-07-27 02:54:00
11:54 PM,66.0,62.1,87,30.01,10.0,SSW,3.5,-,N/A,,Clear,210,2013-07-27 03:54:00